Location: Unspecified
(0.0000°N, 0.0000°E)
Time: 21:02:16
(UTC+00:00)

Explorer 7 - Pass Details

Date: 20 June 2025
Orbit: 444 x 569 km, 50.3° (Epoch: 12 July)

Event Time Altitude Azimuth Distance (km) Brightness Sun altitude
Rises 22:53:09 0° 321° (NW) 2,458 - -61.2°
Reaches altitude 10° 22:55:15 10° 319° (NW) 1,603 - -61.5°
Maximum altitude 22:58:51 76° 233° (SW) 491 - -62.0°
Drops below altitude 10° 23:02:38 10° 147° (SSE) 1,678 - -62.5°
Sets 23:04:52 0° 146° (SE) 2,586 - -62.8°
